Regional Weather Roundup
Issued by NWS Charleston, SC

Current Version | Previous Version | Graphics & Text | Print | Product List | Glossary On
Versions: 1 2 3 4 5 6 7 8 9 10 11 12 13 14 15 16 17 18 19 20 21 22 23 24 25 26 27 28 29 30 31 32 33 34 35 36 37 38 39 40 41 42 43 44 45 46 47 48 49 50
000
ASUS42 KCHS 280326
RWRCHS

REGIONAL WEATHER ROUNDUP
NATIONAL WEATHER SERVICE CHARLESTON SC
1000 PM EST FRI FEB 27 2015

NOTE: "FAIR" INDICATES FEW OR NO CLOUDS BELOW 12,000 FEET WITH NO
SIGNIFICANT WEATHER AND/OR OBSTRUCTIONS TO VISIBILITY.

NOT ALL STATIONS ARE QUALITY CONTROLLED BY THE NATIONAL
WEATHER SERVICE. USE DATA WITH CAUTION...ESPECIALLY
DEWPOINT OBSERVATIONS.

SCZ027-030-031-034>040-042>050-280400-
...SOUTHEAST SOUTH CAROLINA...

CITY           SKY/WX    TMP DP  RH WIND       PRES   REMARKS
N CHARLESTON   MOCLDY    41  35  79 NE3       30.46R
WATERFRONT PRK   N/A     45 N/A N/A NE7         N/A
MOUNT PLEASANT LGT RAIN  37  36  93 CALM      30.46S
PINOPOLIS        N/A     43  37  81 CALM      30.36R
MONCKS CORNER  FAIR      39  36  87 CALM      30.47R
SUMMERVILLE    FAIR      37  37 100 CALM      30.47R
BEAUFORT MCAS  MOCLDY    44  37  76 NE6       30.45R
BEAUFORT ARPT  FAIR      43  39  87 CALM      30.44S
HILTON HEAD IS MOCLDY    45  39  81 N5        30.45R
WALTERBORO     MOCLDY    39  36  87 E3        30.47R
ALLENDALE      FAIR      43  37  81 CALM      30.44R

...SOUTHERN MIDLANDS AND PEE DEE...

CITY           SKY/WX    TMP DP  RH WIND       PRES   REMARKS
GEORGETOWN     NOT AVBL
KINGSTREE      NOT AVBL
ORANGEBURG     PTCLDY    39  35  86 CALM      30.44R
BARNWELL       FAIR      41  37  87 CALM      30.44R
AIKEN          FAIR      36  36 100 SE3       30.46R
MANNING        FAIR      37  36  93 CALM      30.47R
COLUMBIA       PTCLDY    42  35  76 NE6       30.45R
SUMTER         CLEAR     36  32  87 NE8       30.45R HAZE    WCI  29
FLORENCE       CLEAR     41  30  65 NE8       30.48R
MYRTLE BEACH   CLEAR     41  36  81 E5        30.49R
N MYRTLE BEACH PTCLDY    36  34  92 NE5       30.47R WCI  32

$$

GAZ063-065-086>088-099>101-113>116-118-119-134>141-150-280400-
...SOUTHEAST GEORGIA...

CITY           SKY/WX    TMP DP  RH WIND       PRES   REMARKS
SAVANNAH ARPT  CLOUDY    44  35  70 NE6       30.44R
HUNTER AAF     CLOUDY    44  37  76 NE7       30.40R
FORT STEWART   CLOUDY    42  36  80 NE3       30.40R
STATESBORO     MOCLDY    43  38  85 CALM      30.43R
SYLVANIA       MOCLDY    42  39  91 SE3       30.44R
CLAXTON        FAIR      41  39  93 E3        30.43R

...CSRA...CENTRAL AND FAR SOUTHEAST GEORGIA...

CITY           SKY/WX    TMP DP  RH WIND       PRES   REMARKS
THOMSON        CLEAR     38  38 100 CALM      30.47R
AUGUSTA-BUSH   CLEAR     38  35  89 CALM      30.43R
AUGUSTA-DANIEL CLEAR     49  34  56 E6        30.43R
SWAINSBORO     FAIR      45  34  65 E3        30.42R
VIDALIA        MOCLDY    43  39  87 E7        30.40R
EASTMAN        FAIR      39  39 100 CALM      30.43R FOG
HAZLEHURST     FAIR      47  40  76 SE6       30.40R
ALMA           CLOUDY    44  36  73 E5        30.40R
WAYCROSS       CLOUDY    47  40  76 E7        30.40R
JESUP          FAIR      46  41  81 E6        30.42R
BAXLEY         FAIR      45  37  76 E5        30.40R
BRUNSWICK      CLOUDY    46  39  76 NE7       30.41R
SAINT SIMONS   CLOUDY    49  39  68 NE12      30.39R

$$

SCZ027-028-034-036>038-045-046-048>050-GAZ119-141-280400-
...LAKE AND SUPPLEMENTAL COASTAL OBSERVATIONS...

STATION/POSITION TIME  TEMP    WIND        PRES    WAVE   SWELL
                       AIR SEA DIR/SP/G            HT/PER HT/PER/DIR
                 (UTC) (F)     (DEG/KT/KT) (MB)    (FT/S) (FT/S/D)
UPR LAKE MARION  NOT AVBL
WINYAH BAY       0200   41      30/  3     1029.0S
LAKE MURRAY      0300   45      60/  4/  9 1030.1R
ACE BASIN NERRS  NOT AVBL
FORT PULASKI     0300           40/ 14/ 18   N/A
SAPELO ISLAND    0300   47      40/  7     1029.0S

$$

ANZ835-935-AMZ111-154-330-350-352-354-370-450-454-472-280400-
...C-MAN AND BUOY OBSERVATIONS...

STATION/POSITION TIME  TEMP    WIND        PRES    WAVE   SWELL
                       AIR SEA DIR/SP/G            HT/PER HT/PER/DIR
                 (UTC) (F)     (DEG/KT/KT) (MB)    (FT/S) (FT/S/D)
BUOY 41004       0250   53 65   50/ 19/ 23 1029.9R   5/ 6   3/ 8
BUOY 41008       0250   51 52   50/ 19/ 23 1028.9R   5/ 7   2/ 60/11
FOLLY BEACH CMAN 0300   47      50/ 11/ 12 1031.5R
CAPERS NEARSHORE NOT AVBL
FRIPP NEARSHORE  0200   48      60/ 14/ 16 1029.0R


STATION/POSITION TIME  TEMP    WIND        PRES    WAVE   SWELL
                       AIR SEA DIR/SP/G            HT/PER HT/PER/DIR
                 (UTC) (F)     (DEG/KT/KT) (MB)    (FT/S) (FT/S/D)
5E ST. MARYS GA  0221      53                N/A     6/ 6   2/110/11
FRYING PAN BUOY  0250   50 62   50/ 17/ 21 1031.5R   5/ 8   3/110/ 8
BUOY 41025       NOT AVBL
CAPE LOOKOUT NC  0300   37      20/ 17/ 20 1033.0R
BUOY 41002       0250   64 70   20/ 17/ 21 1026.9R   9/10   7/ 20/10
BUOY 41010       0220   67 72   70/ 21/ 25 1024.3R
ST AUGUSTINE FL  0300   54      10/ 24/ 26 1027.2R


$$



USA.gov is the U.S. government's official web portal to all federal, state and local government web resources and services.